Location: Sungai Anya
(2.6167°N, 114.0500°E)
Time: 15:37:17
(UTC+00:00)

Cosmos 1153 Rocket - Pass Details

Date: 03 June 2022
Orbit: 954 x 1005 km, 82.9° (Epoch: 03 July)

Event Time Altitude Azimuth Distance (km) Brightness Sun altitude
Rises 19:56:46 0° 36° (NE) 3,720 8.4 -32.0°
Reaches altitude 10° 20:01:36 10° 69° (ENE) 2,770 7.8 -30.9°
Maximum altitude 20:03:25 11° 86° (E) 2,676 7.5 -30.5°
Drops below altitude 10° 20:05:14 10° 103° (ESE) 2,768 7.4 -30.1°
Sets 20:10:00 0° 135° (SE) 3,711 7.7 -29.1°
